Current Version              Previous Version:    01  02  03  04  05  06  07  08  09  10  11  12  13  14  15  16  17  18  19  20  21  22  23  24  25  26  27  28  29  30  
   31  32  33  34  35  36  37  38  39  40  41  42  43  44  45  46  47  48  49  50  51  52  53  54  55  56  57  58  59  60  

[Printable]
161
ASUS44 KFWD 272201
RWRTX
NORTH TEXAS HOURLY WEATHER ROUNDUP
NATIONAL WEATHER SERVICE FORT WORTH TX
500 PM CDT WED AUG 27 2014

NOTE: "FAIR" INDICATES FEW OR NO CLOUDS BELOW 12,000 FEET WITH NO
SIGNIFICANT WEATHER AND/OR OBSTRUCTIONS TO VISIBILITY.

TXZ118-119-272300-
DALLAS/FORT WORTH METROPLEX

CITY           SKY/WX    TMP DP  RH WIND       PRES   REMARKS
DFW AIRPORT    MOSUNNY   93  65  39 SE7       29.97F HX  95
DALLAS LOVE    MOSUNNY   94  65  38 E12       29.97F HX  96
FTW MEACHAM    MOSUNNY   95  64  35 E9        29.96F HX  97
DAL-EXECUTIVE  SUNNY     96  63  33 SE10      29.97F HX  97
FTW-ALLIANCE   MOSUNNY   94  64  37 VRB5      29.97F HX  95
FTW-NAS-JRB    PTSUNNY   97  61  30 E10G17    30.00F HX  97
FTW-SPINKS     MOSUNNY   93  63  36 E7        29.98F HX  94
ARLINGTON      MOSUNNY   93  63  36 E6        29.97F HX  94
GRAND PRAIRIE  SUNNY     93  61  33 NE10      29.98F HX  93
ADDISON        PTSUNNY   91  64  40 E9        29.99F HX  93
MESQUITE       MOSUNNY   93  61  33 E7        29.97F HX  93
LANCASTER      PTSUNNY   93  61  34 SE6G16    29.98F HX  92
$$

TXZ091>094-102>105-117-120-121-131>134-272300-
NORTH CENTRAL TEXAS

CITY           SKY/WX    TMP DP  RH WIND       PRES   REMARKS
SHRMAN/DENISON SUNNY     94  62  34 E10G17    30.00F HX  94
GAINESVILLE    MOSUNNY   92  67  43 E12       30.00F HX  95
BRIDGEPORT     MOSUNNY   94  58  29 SE7       29.98F HX  93
DECATUR        SUNNY     93  61  35 E12       29.99F HX  93
DENTON         MOSUNNY   94  65  38 E9G17     29.97F HX  96
MCKINNEY       MOSUNNY   92  66  42 E12       29.97F HX  94
GREENVILLE     MOSUNNY   93  59  31 E12       29.99F HX  92
ROCKWALL       SUNNY     92  68  44 E10G18    29.97F HX  96
TERRELL        MOSUNNY   94  60  32 E10       29.98F HX  94
WAXAHACHIE     SUNNY     94  59  31 SE7       29.98F HX  93
CLEBURNE       PTSUNNY   93  66  40 E9G16     29.99F HX  96
$$

TXZ083>090-098>101-113>116-127>130-139>142-154-155-272300-
WESTERN NORTH TEXAS

CITY           SKY/WX    TMP DP  RH WIND       PRES   REMARKS
WICHITA FALLS  MOSUNNY   98  63  31 SE13G18   29.95F HX 100
WF-KICKAPOO    MOSUNNY   99  58  26 E13       29.97F HX  98
VERNON         SUNNY     98  56  24 SE10G17   29.97F HX  97
ABILENE        MOSUNNY   98  58  26 E12       29.98F HX  97
ABILENE-DYESS  MOSUNNY   94  63  35 VRB3      29.98F HX  95
BRECKENRIDGE   MOSUNNY   97  58  27 E9        29.96F HAZE    HX  96
MINERAL WELLS  MOSUNNY   95  62  33 SE9       29.96F HX  96
STEPHENVILLE   MOSUNNY   95  58  29 SE10G18   30.01F HX  94
COMANCHE         N/A     94  59  31 SE8       29.99F HX  93
BROWNWOOD      MOSUNNY   93  59  31 SE12      29.98F HX  92
COLEMAN        MOSUNNY   94  58  29 SE5       29.99F HX  93
BRADY          MOSUNNY   93  61  33 E10       29.99F HX  93
$$

TXZ143>147-156>162-174-175-272300-
CENTRAL TEXAS

CITY           SKY/WX    TMP DP  RH WIND       PRES   REMARKS
WACO           MOSUNNY   95  60  31 E7        29.95F HX  95
WACO-MCGREGOR  SUNNY     97  61  30 SE12      29.96F HX  97
HILLSBORO      MOSUNNY   94  61  33 E13       29.97F HX  94
CORSICANA      SUNNY     95  58  28 E10       29.98F HX  94
MEXIA          SUNNY     93  58  30 E8        29.96F HX  92
HEARNE           N/A     95  59  29 NE5       29.95F HX  94
CAMERON        SUNNY     96  58  27 E12G18    29.94F HX  95
TEMPLE         MOSUNNY   97  61  30 NE15      29.96F HX  97
KILLEEN        PTSUNNY   95  63  34 NE10G16   29.96F HX  96
KILLEEN-SKYLRK SUNNY     93  61  33 E10       29.96F HX  93
FORT HOOD      MOSUNNY   98  62  30 E8        29.96F HX  99
HAMILTON       PTSUNNY   96  59  29 E8        30.00F HX  96
LAMPASAS       MOSUNNY   96  65  36 E10       29.97F HX  98
$$

TXZ095>097-106>112-122>126-135>138-148>153-164>167-272300-
EAST TEXAS

CITY           SKY/WX    TMP DP  RH WIND       PRES   REMARKS
PARIS          SUNNY     91  64  40 E7        30.01F HX  93
SULPHUR SPRNGS MOSUNNY   91  60  35 SE8       30.01F HX  90
CLARKSVILLE    SUNNY     93  62  35 E6        30.00F HX  93
MOUNT PLEASANT MOSUNNY   92  61  34 SE8       30.01F HX  92
MINEOLA        PTSUNNY   93  57  29 E5        30.00F HX  92
TYLER          SUNNY     94  56  27 NE10      29.99F HX  92
LONGVIEW       MOSUNNY   93  60  33 VRB3      29.98F HX  93
MARSHALL       MOSUNNY   96  56  25 SE3       30.00F HX  94
ATHENS         SUNNY     91  57  31 NE7       29.97F HX  90
PALESTINE      SUNNY     93  60  32 E6        29.98F HX  93
JACKSONVILLE   SUNNY     89  60  36 E6        30.01F
HENDERSON      SUNNY     94  58  30 E7        29.99F HX  93
NACOGDOCHES    MOSUNNY   93  64  38 NE5       29.97F HX  95
LUFKIN         SUNNY     95  67  39 E10       29.96F HX  99
$$

SUPPLEMENTAL OBSERVATIONS (CENTRAL)

CITY           SKY/WX    TMP DP  RH WIND       PRES   REMARKS
$$

SUPPLEMENTAL OBSERVATIONS (WEST)

CITY           SKY/WX    TMP DP  RH WIND       PRES   REMARKS
$$

SUPPLEMENTAL OBSERVATIONS (EAST)

CITY           SKY/WX    TMP DP  RH WIND       PRES   REMARKS
$$

SUPPLEMENTAL OBSERVATIONS ARE A COLLECTION OF AUTOMATED INSTRUMENTS
THAT ARE MAINTAINED BY A VARIETY OF FEDERAL AND STATE AGENCIES.
CERTAIN ELEMENTS...SUCH AS HUMIDITY VALUES AND SUSTAINED WIND
SPEEDS...MAY BE APPROXIMATED.